STARLINK-31810, 59799

Orbit data source: Space-Track

STARLINK-31810, 59799 is a payload satellite owned by SpaceX/Seattle (US) in LEO that was launched on Sat, 18 May 2024 UTC via an FALCON 9 launch vehicle from the Air Force Eastern Test Range (AFETR). Payload-class satellites include a variety of spacecraft equipped with specific instruments for various scientific and technological missions. These include communications satellites like Starlink; space stations such as the ISS; scientific satellites like the Hubble; Earth observation satellites from companies like Planet Labs, Umbra, and HawkEye 360; GPS; miniature CubeSats for education and research; and military/defense satellites.

Loading next visibility...
Identifier
59799, 2024-093T
Orbit
LEO
Country
Flag of USUS
Related business
Manufacturer
SpaceX/Seattle
Mission
Operational Commercial Communications
Bus & Motor
STARLINK V2M, Unknown motor
Mass
730 kg wet, ~700 kg dry
Launch date (UTC)
2024-05-18 (1 year ago)
Launch vehicle
FALCON 9
Launch site
Air Force Eastern Test Range (AFETR)
Object type
Payload
Rocket body
Debris
Shape & HBR
Box + 2 Pan, 17.7 m
Radar Cross Section
33.884 m², Large (>1 m²)

Expand to show TLE details & history
Last TLE update: 10 hours ago

TLE from 10 hours ago
0 STARLINK-31810
1 59799U 24093T   25292.26168116  .00000691  00000-0  34651-4 0  9997
2 59799  43.0013 287.7945 0001874 268.0879  91.9758 15.27582040 81062
Epoch: 2025-10-19T06:16Z
TLE epoch observation values (Epoch: 2025-10-19T06:16:49.252Z)
Latitude
-0.00001°
Longitude
165.6084°
Altitude
482.863 km
Speed
7.626 km/s
True Right ascension
19h 11m 10s
True Declination
0° 00' 00"
Sunlit
Object was in daylight at epoch
Visualization orbit readout
Latitude
Unknown
Longitude
Unknown
Altitude
Unknown
Speed
Unknown
Apparent Right ascension
Unknown
Apparent Declination
Unknown
Sunlit
N/A
Visualization observer readout
Local Sidereal Time
10:59:06
Azimuth
Unknown
Elevation
Unknown
Doppler factor
Unknown
Orbital elements
Apogee altitude
486.274 km
Perigee altitude
483.702 km
Semi-major axis
6,863.125 km
Eccentricity
0.00019
Inclination
43.0013°
RAAN
287.7945°
Arg. of periapsis
268.0879°
True anomaly
91.99726°
Mean anomaly
91.9758°
Eccentric anomaly
91.98653°
Mean motion
3.81734 °/min
Orbital period
94.31 mins
BSTAR
0.000034651
Loading maneuver chart data...
Computing Atmospheric mass density...
Loading historical data...
Loading historical data...
Loading historical data...
Loading historical data...
Loading historical data...
Loading historical data...
Loading historical data...

Documentation

Showing up to 5 results
|